Weather History for Needles, CA

Change the Weather History Date:

Sunday, May 10, 2009

  Actual Average Record
Temperature  
Mean Temperature 90 °F -  
Max Temperature 102 °F 92 °F 110 °F (1960)
Min Temperature 77 °F 64 °F 53 °F (1979)
Cooling Degree Days 24    
Growing Degree Days 40 (Base 50)    
Moisture  
Dew Point 29 °F    
Average Humidity 11    
Maximum Humidity 18    
Minimum Humidity 7    
Precipitation  
Precipitation 0.00 in - - ()
Sea Level Pressure  
Sea Level Pressure 29.64 in    
Wind  
Wind Speed 6 mph (SW)    
Max Wind Speed 10 mph    
Max Gust Speed 16 mph    
Visibility 10 miles    
Events      
Averages and records for this station are not official NWS values.
T = Trace of Precipitation, MM = Missing Value Source: NWS Daily Summary

Daily Weather History Graph

Daily Weather History Graph

Search for Another Location

Airport:

Trip Planner

Search our weather history database for the weather conditions in past years. The results will help you decide how hot, cold, wet, or windy it might be!

Date:

Astronomy

May. 10, 2009 Rise Set
Actual Time 5:39 AM PDT 7:31 PM PDT
Civil Twilight 5:11 AM PDT 7:58 PM PDT
Nautical Twilight 4:38 AM PDT 8:32 PM PDT
Astronomical Twilight 4:02 AM PDT 9:07 PM PDT
Moon 9:29 PM PDT (5/10) 6:19 AM PDT (5/10)
Length of Visible Light 14h 47m
Length of Day
13h 51m
Full, 97% of the Moon is Illuminated
May 10
Full
May 17
Last Quarter
May 24
New
May 30
First Quarter
Jun 7
Full

Hourly Weather History & Observations

Time (PDT) Temp. Dew Point Humidity Pressure Visibility Wind Dir Wind Speed Gust Speed Precip Events Conditions
12:56 AM 86.0 °F 37.0 °F 18% 29.61 in 10.0 mi West 8.1 mph - N/A   Clear
2:56 AM 82.9 °F 28.0 °F 14% 29.60 in 10.0 mi SW 6.9 mph - N/A   Clear
3:56 AM 78.1 °F 28.0 °F 16% 29.62 in 10.0 mi WSW 5.8 mph - N/A   Clear
5:56 AM 77.0 °F 28.9 °F 17% 29.65 in 10.0 mi Calm Calm - N/A   Clear
6:56 AM 82.0 °F 28.9 °F 14% 29.68 in 10.0 mi NW 8.1 mph - N/A   Clear
7:56 AM 86.0 °F 25.0 °F 11% 29.70 in 10.0 mi Variable 3.5 mph - N/A   Clear
8:56 AM 88.0 °F 32.0 °F 14% 29.70 in 10.0 mi South 4.6 mph - N/A   Clear
9:56 AM 91.9 °F 33.1 °F 12% 29.71 in 10.0 mi SE 5.8 mph - N/A   Clear
10:56 AM 93.9 °F 32.0 °F 11% 29.71 in 10.0 mi East 10.4 mph - N/A   Clear
11:56 AM 96.1 °F 30.9 °F 10% 29.70 in 10.0 mi Variable 6.9 mph 16.1 mph N/A   Clear
12:56 PM 99.0 °F 30.0 °F 9% 29.68 in 10.0 mi Variable 6.9 mph 16.1 mph N/A   Clear
1:56 PM 99.0 °F 28.0 °F 8% 29.66 in 10.0 mi Variable 3.5 mph - N/A   Clear
2:56 PM 100.0 °F 28.9 °F 8% 29.63 in 10.0 mi Variable 4.6 mph - N/A   Clear
3:56 PM 100.9 °F 26.1 °F 7% 29.61 in 10.0 mi Calm Calm - N/A   Clear
4:56 PM 100.9 °F 28.0 °F 8% 29.59 in 10.0 mi SSE 4.6 mph - N/A   Clear
5:56 PM 102.0 °F 28.9 °F 8% 29.58 in 10.0 mi SW 8.1 mph - N/A   Clear
6:56 PM 99.0 °F 28.9 °F 8% 29.58 in 10.0 mi WSW 9.2 mph - N/A   Clear
7:56 PM 96.1 °F 28.0 °F 9% 29.59 in 10.0 mi WSW 8.1 mph - N/A   Clear
8:56 PM 91.0 °F 28.0 °F 10% 29.61 in 10.0 mi WSW 6.9 mph - N/A   Clear
9:56 PM 89.1 °F 28.0 °F 11% 29.62 in 10.0 mi SW 8.1 mph - N/A   Clear
10:56 PM 89.1 °F 30.9 °F 12% 29.62 in 10.0 mi WSW 6.9 mph - N/A   Clear
11:56 PM 90.0 °F 30.9 °F 12% 29.62 in 10.0 mi SSW 3.5 mph - N/A   Clear